Atqasuk Edward Burnell Sr Mem, AK

12:56 PM AKDT on October 13, 2019 (GMT -0800)
Atqasuk Edward Burnell Sr Mem

Weather History for PATQ - May, 2019

Change the Weather History Date:

Thursday, May 2, 2019

  Actual Average (PABR) Record (PABR)
Temperature  
Mean Temperature 21 °F -  
Max Temperature 25 °F 16 °F 37 °F (1967)
Min Temperature 17 °F 5 °F -18 °F (1922)
Degree Days  
Heating Degree Days 44    
Moisture  
Dew Point 20 °F    
Average Humidity 91    
Maximum Humidity 100    
Minimum Humidity 80    
Precipitation  
Precipitation 0.00 in - - ()
Sea Level Pressure  
Sea Level Pressure 30.10 in    
Wind  
Wind Speed 25 mph (East)    
Max Wind Speed 31 mph    
Max Gust Speed 34 mph    
Visibility 7 miles    
Events Snow    
Averages and records for this station are not official NWS values.
T = Trace of Precipitation, MM = Missing Value Source: NWS Daily Summary

Daily Weather History Graph

Daily Weather History Graph

Search for Another Location

Airport or City:

Astronomy

May. 02, 2019 Rise Set
Actual Time 4:46 AM AKDT 12:12 AM AKDT
Civil Twilight 2:59 AM AKDT Sun does not rise
Nautical Twilight Sun does not rise Sun does not rise
Astronomical Twilight Sun does not rise Sun does not rise
Moon 6:38 AM AKDT (5/2) 7:54 PM AKDT (5/2)
Length of Visible Light 24h 00m
Length of Day
19h 26m
Waning Crescent, 5% of the Moon is Illuminated
May 2
Waning Crescent
May 4
New
May 11
First Quarter
May 18
Full
May 26
Last Quarter

Hourly Weather History & Observations

Time (AKDT) Temp. Windchill Dew Point Humidity Pressure Visibility Wind Dir Wind Speed Gust Speed Precip Events Conditions
12:49 AM 24.8 °F 9.3 °F 24.8 °F 100% 30.17 in 1.8 mi East 24.2 mph - 0.00 in Snow Light Snow
12:54 AM 24.8 °F 9.3 °F 24.8 °F 100% 30.17 in 1.0 mi East 24.2 mph - 0.00 in Snow Light Snow
12:56 AM 25.0 °F 9.5 °F 24.1 °F 96% 30.19 in 1.0 mi East 24.2 mph - 0.00 in Snow Light Snow
1:14 AM 24.8 °F 9.3 °F 23.0 °F 93% 30.17 in 2.0 mi East 24.2 mph - 0.00 in   Overcast
1:22 AM 24.8 °F 9.3 °F 23.0 °F 93% 30.18 in 3.0 mi East 24.2 mph - 0.00 in   Overcast
1:27 AM 24.8 °F 9.3 °F 23.0 °F 93% 30.18 in 1.8 mi East 24.2 mph - 0.00 in   Overcast
1:49 AM 24.8 °F 9.0 °F 23.0 °F 93% 30.18 in 0.8 mi East 25.3 mph - 0.00 in Snow Light Snow
1:56 AM 24.1 °F 8.3 °F 23.0 °F 96% 30.20 in 0.8 mi East 24.2 mph - 0.00 in Snow Light Snow
2:01 AM 24.8 °F 9.3 °F 23.0 °F 93% 30.18 in 1.2 mi East 24.2 mph - 0.00 in Snow Light Snow
2:07 AM 24.8 °F 9.3 °F 21.2 °F 86% 30.18 in 3.0 mi East 24.2 mph - 0.00 in Snow Light Snow
2:56 AM 21.9 °F 5.5 °F 21.0 °F 96% 30.19 in 10.0 mi East 24.2 mph - 0.00 in   Overcast
3:56 AM 21.9 °F 5.1 °F 21.0 °F 96% 30.19 in 10.0 mi East 25.3 mph 31.1 mph N/A   Overcast
4:54 AM 21.2 °F 4.9 °F 19.4 °F 93% 30.17 in 10.0 mi East 23.0 mph - N/A   Scattered Clouds
4:56 AM 21.0 °F 4.3 °F 19.9 °F 96% 30.19 in 10.0 mi East 24.2 mph - N/A   Partly Cloudy
5:38 AM 21.2 °F 4.2 °F 19.4 °F 93% 30.16 in 10.0 mi East 25.3 mph - N/A   Mostly Cloudy
5:54 AM 21.2 °F 4.2 °F 19.4 °F 93% 30.16 in 10.0 mi East 25.3 mph - N/A   Scattered Clouds
5:56 AM 21.0 °F 3.0 °F 19.9 °F 96% 30.18 in 10.0 mi East 28.8 mph - N/A   Scattered Clouds
6:30 AM 21.2 °F 3.3 °F 19.4 °F 93% 30.15 in 10.0 mi East 28.8 mph - N/A   Mostly Cloudy
6:56 AM 21.9 °F 5.1 °F 19.9 °F 92% 30.17 in 10.0 mi East 25.3 mph - N/A   Partly Cloudy
7:27 AM 21.2 °F 4.5 °F 21.2 °F 100% 30.15 in 5.0 mi East 24.2 mph - N/A   Mostly Cloudy
7:56 AM 23.0 °F 6.3 °F 21.9 °F 96% 30.17 in 7.0 mi East 26.5 mph - 0.00 in   Overcast
8:56 AM 25.0 °F 8.9 °F 23.0 °F 92% 30.15 in 9.0 mi East 26.5 mph - N/A   Overcast
9:32 AM 23.0 °F 5.7 °F 21.2 °F 93% 30.11 in 7.0 mi East 28.8 mph - N/A   Mostly Cloudy
9:41 AM 24.8 °F 8.4 °F 21.2 °F 86% 30.11 in 10.0 mi East 27.6 mph - N/A   Scattered Clouds
9:56 AM 23.0 °F 5.7 °F 21.0 °F 92% 30.13 in 10.0 mi East 28.8 mph - N/A   Clear
10:31 AM 21.2 °F 2.7 °F 19.4 °F 93% 30.09 in 9.0 mi East 31.1 mph - N/A   Partly Cloudy
10:56 AM 21.0 °F 3.0 °F 18.0 °F 88% 30.12 in 9.0 mi East 28.8 mph 34.5 mph N/A   Partly Cloudy
11:56 AM 19.0 °F 1.0 °F 15.1 °F 85% 30.12 in 10.0 mi East 26.5 mph - N/A   Clear
12:30 PM 17.6 °F -1.6 °F 14.0 °F 86% 30.09 in 4.0 mi East 28.8 mph - 0.00 in Snow Light Snow
12:47 PM 19.4 °F 1.4 °F 14.0 °F 80% 30.09 in 4.0 mi East 26.5 mph 34.5 mph 0.00 in Snow Light Snow
12:56 PM 18.0 °F -0.5 °F 14.0 °F 84% 30.11 in 5.0 mi East 26.5 mph - 0.00 in Snow Light Snow
1:56 PM 19.0 °F 1.3 °F 14.0 °F 81% 30.09 in 7.0 mi East 25.3 mph - 0.00 in Snow Light Snow
2:56 PM 19.0 °F 1.6 °F 15.1 °F 85% 30.07 in 10.0 mi East 24.2 mph - 0.00 in   Clear
3:56 PM 19.9 °F 2.2 °F 15.1 °F 81% 30.04 in 10.0 mi East 26.5 mph - 0.00 in   Clear
4:56 PM 21.0 °F 4.3 °F 16.0 °F 81% 30.01 in 10.0 mi ENE 24.2 mph - N/A   Clear
5:56 PM 21.0 °F 4.3 °F 16.0 °F 81% 29.99 in 10.0 mi ENE 24.2 mph - N/A   Clear
6:56 PM 21.9 °F 6.2 °F 17.1 °F 82% 29.97 in 10.0 mi ENE 21.9 mph - N/A   Clear
7:56 PM 23.0 °F 8.7 °F 19.0 °F 85% 29.95 in 10.0 mi ENE 18.4 mph - N/A   Clear
8:56 PM 23.0 °F 8.0 °F 21.0 °F 92% 29.94 in 9.0 mi East 20.7 mph - N/A   Clear
9:23 PM 23.0 °F 7.6 °F 21.2 °F 93% 29.90 in 8.0 mi ENE 21.9 mph - 0.00 in Snow Light Snow
9:56 PM 23.0 °F 7.6 °F 21.0 °F 92% 29.92 in 8.0 mi ENE 21.9 mph - 0.00 in Snow Light Snow
10:40 PM 21.2 °F 4.5 °F 19.4 °F 93% 29.89 in 5.0 mi ENE 24.2 mph - 0.00 in   Mostly Cloudy
10:56 PM 21.9 °F 5.8 °F 19.9 °F 92% 29.91 in 6.0 mi East 23.0 mph - 0.00 in   Mostly Cloudy
11:56 PM 19.9 °F 2.2 °F 18.0 °F 92% 29.90 in 4.0 mi East 26.5 mph - 0.00 in Snow Light Snow